Regional Weather Roundup
Issued by NWS

Home | Current Version | Previous Version | Text Only | Print | Product List | Glossary Off
Versions: 1 2 3 4 5 6 7 8 9 10 11 12 13 14 15 16 17 18 19 20 21 22 23 24 25 26 27 28 29 30 31 32 33 34 35 36 37 38 39 40 41 42 43 44 45 46 47 48 49 50

000
ASUS43 KIND 011109
RWRIN

WEATHER ROUNDUP FOR INDIANA
NATIONAL WEATHER SERVICE INDIANAPOLIS IN
600 AM EST SUN MAR 01 2015

NOTE: "FAIR" INDICATES FEW OR NO CLOUDS BELOW 12,000 FEET WITH NO
SIGNIFICANT WEATHER AND/OR OBSTRUCTIONS TO VISIBILITY.

* - STATION DOES NOT REPORT WEATHER SUCH AS PRECIPITATION OR FOG.

+ - STATION NOT QUALITY CONTROLLED BY THE NATIONAL WEATHER SERVICE.
    USE DATA WITH CAUTION...ESPECIALLY DEWPOINT AND RELATIVE
    HUMIDITY OBSERVATIONS.

INZ001>003-010>013-019-020-011200-
NORTHWEST INDIANA

CITY           SKY/WX    TMP DP  RH WIND       PRES   REMARKS
GARY /AIRPORT/ CLOUDY    18  12  79 CALM      30.40F
KNOX *+          N/A     19  10  68 CALM      30.38S
LA PORTE +     CLOUDY    17  15  90 CALM      30.39R
MICHIGAN CITY+ MOCLDY    18  10  73 CALM      30.40R
MONTICELLO +   LGT SNOW  19  17  93 E3        30.37F
RENSSELAER +   LGT SNOW  21  21 100 CALM      30.39R
VALPARAISO     CLOUDY    16  13  88 NE3       30.38S

$$

LMZ046-743>745-011200-
SOUTHERN LAKE MICHIGAN

STATION/POSITION TIME  TEMP WIND        PRES
                       AIR  DIR/SP/G
                 (UTC) (F)  (DEG/KT/KT) (MB)
MICHIGAN CITY    1100   17   30/  2/  4   N/A

$$

INZ004-005-014>016-021>024-011200-
NORTH CENTRAL INDIANA

CITY           SKY/WX    TMP DP  RH WIND       PRES   REMARKS
GOSHEN         CLOUDY    17  12  80 E3        30.37F HAZE
LOGANSPORT +   LGT SNOW  19  18  93 CALM      30.39S
PERU/GRISSOM   LGT SNOW  19  16  86 E3        30.36F FOG
ROCHESTER +    LGT SNOW  21  19  93 SE3       30.38F
SOUTH BEND     CLOUDY    17  12  80 CALM      30.39S
WARSAW +       LGT SNOW  18  16  93 CALM      30.37F

$$

INZ006>009-017-018-025>027-011200-
NORTHEAST INDIANA

CITY           SKY/WX    TMP DP  RH WIND       PRES   REMARKS
ANGOLA *+      MOCLDY    14  12  92 CALM      30.37R
AUBURN +       LGT SNOW  18  14  86 CALM      30.39
FORT WAYNE     LGT SNOW  17  14  88 E5        30.39S FOG     WCI  10
HUNTINGTON +   LGT SNOW  17  13  82 CALM      30.38S

$$

INZ028-029-035-036-043>045-051>053-011200-
WEST CENTRAL INDIANA

CITY           SKY/WX    TMP DP  RH WIND       PRES   REMARKS
CRAWFORDSVL +  LGT SNOW  21  17  85 CALM      30.36S
GREENCASTLE +  LGT SNOW  25  21  86 CALM      30.36S
LAFAYETTE      LGT SNOW  20  18  92 E3        30.38F FOG
TERRE HAUTE    LGT SNOW  25  23  92 CALM      30.38R FOG

$$

INZ030>032-037>040-046>048-054>057-064-065-011200-
CENTRAL INDIANA

CITY           SKY/WX    TMP DP  RH WIND       PRES   REMARKS
CP ATTERBURY + LGT SNOW  27  25  93 CALM      30.38S VSB 3/4
FRANKFORT +    LGT SNOW  22  22 100 E3        30.38S
GREENWOOD *+   CLOUDY    25  21  86 CALM      30.37  VSB 1
INDIANAPOLIS   LGT SNOW  24  21  88 E3        30.36S VSB 3/4
-EAGLE CREEK   LGT SNOW  23  22  96 CALM      30.37R FOG
KOKOMO *+      CLOUDY    19  18  93 CALM      30.38R
MARION +       LGT SNOW  20  18  91 CALM      30.38S
MT COMFORT *+  CLOUDY    23 N/A N/A CALM      30.38R
SHELBYVILLE    LGT SNOW  27  23  85 CALM      30.37S VSB 3/4
ZIONSVILLE +   LGT SNOW  23  20  87 CALM      30.37S VSB 1

$$

INZ033-034-041-042-049-050-058-059-011200-
EAST CENTRAL INDIANA

CITY           SKY/WX    TMP DP  RH WIND       PRES   REMARKS
MUNCIE         LGT SNOW  23  21  92 CALM      30.37S FOG

$$

INZ060-061-067>069-081>083-085>088-011200-
SOUTHWEST INDIANA

CITY           SKY/WX    TMP DP  RH WIND       PRES   REMARKS
EVANSVILLE     FRZ RAIN  33  25  72 E5        30.38R WCI  29
HUNTINGBURG *+ CLOUDY    30  25  80 SE9       30.37F WCI  22
WASHINGTON +   LGT RAIN  32  29  88 CALM      30.37R

$$

INZ062-063-066-070>080-084-089>092-011200-
SOUTH CENTRAL AND SOUTHEAST INDIANA

CITY           SKY/WX    TMP DP  RH WIND       PRES   REMARKS
BLOOMINGTON    SNOW      28  27  96 CALM      30.36S VSB 1/2
NORTH VERNON + MIX PCPN  32  32 100 S3        30.38S
SEYMOUR +      MIX PCPN  30  28  93 S5        30.39S WCI  25

$$



USA.gov is the U.S. government's official web portal to all federal, state and local government web resources and services.